Flag for Ireland Weather past 2 weeks in Limerick, Ireland

50 °F

Partly cloudy.

Feels Like: 43 °F
Forecast: N/A
Wind: 25 mph from Southwest

Location: Shannon Airport

Current Time: Nov 28, 2015 at 8:46:06 PM

Latest Report: Nov 28, 2015 at 8:00 PM

Visibility: N/A

Pressure: 29.62 "Hg

Humidity: 76%

Dew point: 43 °F

Location of LimerickLocation

Historic Weather in Limerick — Graph


Limerick temperature yesterday

Maximum temperature yesterday: 52 °F (at 12:00 AM)
Minimum temperature yesterday: 39 °F (at 7:00 PM)
Average temperature yesterday: 46 °F

Past Weeks' High & Low Weather Summary

High61 °F (Nov 15, 12:30 PM)100% (Nov 14, 9:00 AM)30.27 "Hg (Nov 14, 9:00 AM)
Low34 °F (Nov 23, 12:00 AM)57% (Nov 27, 6:00 PM)29.21 "Hg (Nov 17, 2:00 PM)
Average48 °F86%29.90 "Hg
* Reported Nov 13 7:00 PM — Nov 28 7:30 PM, Limerick, Weather by CustomWeather, © 2015

Note: Actual official high and low records may vary slightly from our data, if they occured in-between our weather recording intervals... More about our weather records


Limerick weather history for previous 24 hours

Time TempWeatherWind HumidityBarometerVisibility
7:30 PM
Sat, Nov 28
50 °FSprinkles. Passing clouds.18 mph71%29.62 "HgN/A
7:00 PM50 °FPassing clouds.23 mph71%29.62 "HgN/A
6:30 PM50 °FPassing clouds.25 mph76%29.62 "HgN/A
6:00 PM50 °FPartly cloudy.26 mph76%29.62 "HgN/A
5:30 PM50 °FPassing clouds.23 mph71%29.62 "HgN/A
5:00 PM48 °FPassing clouds.24 mph82%29.62 "HgN/A
4:30 PM48 °FPassing clouds.23 mph82%29.62 "HgN/A
4:00 PM46 °FSprinkles. Broken clouds.24 mph87%29.62 "Hg4 mi
3:30 PM46 °FSprinkles. Partly sunny.31 mph87%29.59 "HgN/A
3:00 PM50 °FBroken clouds.23 mph76%29.59 "HgN/A
2:30 PM50 °FBroken clouds.26 mph76%29.59 "HgN/A
2:00 PM50 °FBroken clouds.21 mph76%29.59 "HgN/A
1:30 PM50 °FBroken clouds.23 mph76%29.62 "HgN/A
1:00 PM50 °FBroken clouds.31 mph76%29.59 "HgN/A
12:30 PM50 °FBroken clouds.32 mph76%29.59 "HgN/A
12:00 PM50 °FLight rain. Broken clouds.23 mph82%29.59 "HgN/A
11:30 AM48 °FPartly sunny.26 mph87%29.62 "HgN/A
11:00 AM46 °FPartly sunny.25 mph87%29.62 "HgN/A
10:30 AM48 °FLight rain. Partly sunny.25 mph94%29.62 "Hg5 mi
10:00 AM48 °FLight rain. Partly sunny.24 mph87%29.65 "HgN/A
9:30 AM46 °FLight rain. Partly sunny.29 mph93%29.65 "Hg5 mi
9:00 AM46 °FRain. Partly sunny.29 mph93%29.65 "Hg4 mi
8:30 AM46 °FLight rain. Partly sunny.25 mph87%29.68 "Hg5 mi
8:00 AM46 °FLight rain. Passing clouds.26 mph87%29.68 "Hg5 mi
6:30 AM46 °FPartly cloudy.20 mph82%29.77 "HgN/A
6:00 AM45 °FSprinkles. Partly cloudy.15 mph87%29.77 "HgN/A
5:30 AM45 °FSprinkles. Partly cloudy.12 mph87%29.80 "HgN/A
5:00 AM45 °FPartly cloudy.20 mph87%29.83 "HgN/A
4:30 AM45 °FPartly cloudy.16 mph81%29.83 "HgN/A
4:00 AM45 °FPartly cloudy.21 mph81%29.86 "HgN/A
3:30 AM45 °FPassing clouds.23 mph81%29.86 "HgN/A
3:00 AM45 °FPassing clouds.20 mph81%29.89 "HgN/A
2:30 AM45 °FPartly cloudy.17 mph76%29.89 "HgN/A
2:00 AM43 °FPassing clouds.15 mph81%29.92 "HgN/A
1:30 AM43 °FPartly cloudy.10 mph81%29.92 "HgN/A
1:00 AM43 °FPartly cloudy.16 mph76%29.92 "HgN/A
12:30 AM41 °FPassing clouds.13 mph81%29.95 "HgN/A
12:00 AM41 °FPassing clouds.13 mph87%29.95 "HgN/A
11:30 PM
Fri, Nov 27
41 °FPartly cloudy.13 mph81%29.95 "HgN/A
11:00 PM41 °FSprinkles. Passing clouds.13 mph87%29.95 "HgN/A
10:30 PM43 °FSprinkles. Passing clouds.12 mph81%29.95 "HgN/A
10:00 PM41 °FPassing clouds.14 mph81%29.95 "HgN/A
9:30 PM41 °FPassing clouds.13 mph81%29.95 "HgN/A
9:00 PM41 °FPassing clouds.22 mph81%29.95 "HgN/A
8:30 PM41 °FPassing clouds.21 mph81%29.95 "HgN/A
8:00 PM39 °FPassing clouds.16 mph87%29.95 "HgN/A
Weather by CustomWeather, © 2015

See weather overviewHow to use our weather pages